DELTA 1 DEB, 21496

Orbit data source: Space-Track

DELTA 1 DEB, 21496 is space debris in SSO originally from a launch on Thu, 12 Jun 1975 UTC launched from the Air Force Western Test Range (AFWTR). Debris objects in space refer to the collection of defunct objects orbiting the Earth. Examples of debris include non-operational satellites, rocket bodies, and fragments generated from explosions, collisions, or faulty payload assembly.

Loading next visibility...
Identifier
21496, 1975-052FR
Orbit
SSO
Country
Flag of USUS
Related business
Manufacturer
Unknown
Mission
Spacecraft
Bus & Motor
Unknown
Mass
Unknown
Launch date (UTC)
1975-06-12 (51 years ago)
Launch vehicle
Unknown
Launch site
Air Force Western Test Range (AFWTR)
Object type
Payload
Rocket body
Debris
Shape & HBR
Unknown shape, 0.1 m
Radar Cross Section
Medium (>0.1 m² and <1 m²)

Expand to show TLE details & history
Last TLE update: 23 hours ago

TLE from 23 hours ago
0 DELTA 1 DEB
1 21496U 75052FR  26168.62709531  .00000099  00000-0  44555-3 0  9991
2 21496  99.8284  42.6760 0342486  35.8267  20.3379 12.82618259642580
Epoch: 2026-06-17T15:03Z
TLE epoch observation values (Epoch: 2026-06-17T15:03:01.034Z)
Latitude
56.38169°
Longitude
-103.98428°
Altitude
1,093.791 km
Speed
7.427 km/s
True Right ascension
01h 50m 36s
True Declination
56° 13' 48"
Sunlit
Object was in daylight at epoch
Visualization orbit readout
Latitude
Unknown
Longitude
Unknown
Altitude
Unknown
Speed
Unknown
Apparent Right ascension
Unknown
Apparent Declination
Unknown
Sunlit
N/A
Visualization observer readout
Local Sidereal Time
00:36:07
Azimuth
Unknown
Elevation
Unknown
Doppler factor
Unknown
Orbital elements
Apogee altitude
1,592.292 km
Perigee altitude
1,064.418 km
Semi-major axis
7,706.492 km
Eccentricity
0.03425
Inclination
99.8284°
RAAN
42.676°
Arg. of periapsis
35.8267°
True anomaly
21.75872°
Mean anomaly
20.3379°
Eccentric anomaly
21.04248°
Mean motion
3.20818 °/min
Orbital period
112.21 mins
BSTAR
0.00044555
Loading maneuver chart data...
Computing Atmospheric mass density...

Documentation

Showing up to 5 results
|